Showing default

FLOCK 4Q 2, 58320

Orbit data source: Space-Track

FLOCK 4Q 2, 58320 is a payload satellite owned by Planet (US) in SSO that was launched on Sat, 11 Nov 2023 UTC via an FALCON 9 launch vehicle from the Air Force Western Test Range (AFWTR). Payload-class satellites include a variety of spacecraft equipped with specific instruments for various scientific and technological missions. These include communications satellites like Starlink; space stations such as the ISS; scientific satellites like the Hubble; Earth observation satellites from companies like Planet Labs, Umbra, and HawkEye 360; GPS; miniature CubeSats for education and research; and military/defense satellites.

Loading next visibility...
Identifier
58320, 2023-174BS
Orbit
SSO
Country
Flag of USUS
Related business
Manufacturer
Planet
Mission
Operational Commercial Imaging
Bus & Motor
CUBESAT 3U, Unknown motor
Mass
5.7 kg wet, 5.7 kg dry
Launch date (UTC)
2023-11-11 (2 years ago)
Launch vehicle
FALCON 9
Launch site
Air Force Western Test Range (AFWTR)
Object type
Payload
Rocket body
Debris
Shape & HBR
Box + 2 Pan, 1.0 m
Radar Cross Section
0.072 m², Medium (>0.1 m² and < 1m²)

Expand to show TLE details & history
Last TLE update: 6 hours ago

TLE from 6 hours ago
0 FLOCK 4Q 2
1 58320U 23174BS  25343.57687713  .00030665  00000-0  75748-3 0  9990
2 58320  97.3998  63.6858 0008417 106.9948 253.2221 15.40409252116320
Epoch: 2025-12-09T13:50Z
TLE epoch observation values (Epoch: 2025-12-09T13:50:42.184Z)
Latitude
-0.00001°
Longitude
137.45047°
Altitude
449.681 km
Speed
7.642 km/s
True Right ascension
04h 14m 44s
True Declination
0° 00' 00"
Sunlit
Object was in full shadow at epoch
Visualization orbit readout
Latitude
Unknown
Longitude
Unknown
Altitude
Unknown
Speed
Unknown
Apparent Right ascension
Unknown
Apparent Declination
Unknown
Sunlit
N/A
Visualization observer readout
Local Sidereal Time
18:32:36
Azimuth
Unknown
Elevation
Unknown
Doppler factor
Unknown
Orbital elements
Apogee altitude
447.579 km
Perigee altitude
436.099 km
Semi-major axis
6,819.976 km
Eccentricity
0.00084
Inclination
97.3998°
RAAN
63.6858°
Arg. of periapsis
106.9948°
True anomaly
253.12978°
Mean anomaly
253.2221°
Eccentric anomaly
253.17594°
Mean motion
3.85362 °/min
Orbital period
93.42 mins
BSTAR
0.00075748
Loading maneuver chart data...
Computing Atmospheric mass density...
Loading historical data...
Loading historical data...
Loading historical data...
Loading historical data...
Loading historical data...
Loading historical data...
Loading historical data...

Documentation

Showing up to 5 results
|